Regional Weather Roundup
Issued by NWS

Home | Current Version | Previous Version | Graphics & Text | Print | Product List | Glossary On
Versions: 1 2 3 4 5 6 7 8 9 10 11 12 13 14 15 16 17 18 19 20 21 22 23 24 25 26 27
000
ASUS45 KCYS 250110
RWRWY

WYOMING REGIONAL WEATHER ROUNDUP
NATIONAL WEATHER SERVICE CHEYENNE WY
700 PM MDT MON APR 24 2017

NOTE:  "FAIR" INDICATES FEW OR NO CLOUDS BELOW 12,000 FEET
WITH NO SIGNIFICANT WEATHER AND/OR OBSTRUCTIONS TO VISIBILITY.

WYZ001-250200-
YELLOWSTONE NATIONAL PARK

CITY           SKY/WX    TMP DP  RH WIND       PRES   REMARKS
LK YELLOWSTONE   N/A     33  29  85 VRB5      29.63S WCI  29
W YELLOWSTONE  NOT AVBL

$$
WYZ002>013-054>058-071-098>099-250200-
NORTHERN WYOMING

CITY           SKY/WX    TMP DP  RH WIND       PRES   REMARKS
JACKSON        PTSUNNY   39  30  70 S14       29.62S WCI  31
CODY           PTSUNNY   43  38  82 N6        29.57F
GREYBULL       CLOUDY    50  40  68 N17       29.50F
WORLAND        CLOUDY    50  41  71 N10       29.50S
SHERIDAN       LGT RAIN  47  44  90 NE10      29.56R FOG
BUFFALO        RAIN      45  39  79 SW12      29.57R
GILLETTE       RAIN      47  45  93 S6        29.55F
HULETT         MOCLDY    52  36  54 NE12      29.58S
NEWCASTLE      FAIR      52  34  50 W6        29.57F

$$
WYZ014>020-022>026-101>103-250200-
CENTRAL WYOMING

CITY           SKY/WX    TMP DP  RH WIND       PRES   REMARKS
BIG PINEY      PTSUNNY   37  35  92 NE5       29.63S WCI  33
PINEDALE       CLOUDY    32  32 100 W3        29.63F
DUBOIS         CLOUDY    36  32  87 NW13      29.57S WCI  27
LANDER         CLOUDY    49  32  52 NW23G31   29.47R
RIVERTON       LGT RAIN  50  34  54 NW20      29.49S
CASPER         CLOUDY    52  33  48 S7        29.50F
DOUGLAS        FAIR      51  37  58 E10       29.54F

$$
WYZ021-027>030-104>119-250200-
SOUTHERN WYOMING

CITY           SKY/WX    TMP DP  RH WIND       PRES   REMARKS
EVANSTON       CLOUDY    38  33  82 SW16      29.70S WCI  29
KEMMERER       SNOW      32  32 100 W15       29.67S VSB 1/2 WCI  22
FORT BRIDGER   FAIR      40  37  89 W29G36    29.69F WCI  29
ROCK SPRINGS   CLOUDY    39  35  86 W15       29.63F WCI  31
DIXON          RAIN      40  36  86 NW20G28   29.67R WCI  30
RAWLINS        LGT RAIN  36  33  89 W14G26    29.60F FOG     WCI  27
SARATOGA       DRIZZLE   45  36  70 S12G23    29.60S
LARAMIE        CLOUDY    46  34  62 S16       29.59F
CHEYENNE       LGT RAIN  44  40  85 N8        29.62F
TORRINGTON     CLOUDY    54  41  61 NE12      29.57F
PINE BLUFFS    CLOUDY    46  45  93 N6        29.61F

$$




USA.gov is the U.S. government's official web portal to all federal, state and local government web resources and services.